contact:dominique.lefevre@mio.osupytheas.fr, maurice.libes@osupytheas.fr, didier.mallarino@osupytheas.fr
Project:EMSO http://www.emso-fr.org/EMSO-France
Depth: 2436.0 m
Title:EMSO Ligure Ouest : Data MII capteur MICROCAT
DateTime_Computer,Latitude,Longitude,Temperature,Conductivity,Pressure,DateTime_Instrument
DateTime_Computer,Latitude,Longitude,degC,S m-1,dbar,DateTime_Instrument
2021-04-17T00:00:35Z,42.805,6.029,13.2992,4.60001,2469.947,2021-4-17T02:01:44Z
2021-04-17T00:03:38Z,42.805,6.029,13.2995,4.60001,2469.923,2021-4-17T02:04:47Z
2021-04-17T00:06:41Z,42.805,6.029,13.2994,4.60021,2469.9,2021-4-17T02:07:50Z
2021-04-17T00:09:44Z,42.805,6.029,13.2991,4.60004,2469.937,2021-4-17T02:10:53Z
2021-04-17T00:12:47Z,42.805,6.029,13.2992,4.60004,2469.937,2021-4-17T02:13:56Z
2021-04-17T00:15:50Z,42.805,6.029,13.2993,4.60005,2469.923,2021-4-17T02:16:59Z
2021-04-17T00:18:54Z,42.805,6.029,13.2994,4.60008,2469.9,2021-4-17T02:20:02Z
2021-04-17T00:21:57Z,42.805,6.029,13.2991,4.60010,2469.923,2021-4-17T02:23:05Z
2021-04-17T00:25:00Z,42.805,6.029,13.2997,4.60016,2469.937,2021-4-17T02:26:09Z
2021-04-17T00:28:03Z,42.805,6.029,13.2996,4.60019,2469.9,2021-4-17T02:29:12Z
2021-04-17T00:31:06Z,42.805,6.029,13.3002,4.60011,2469.947,2021-4-17T02:32:15Z
2021-04-17T00:34:09Z,42.805,6.029,13.2993,4.60006,2469.914,2021-4-17T02:35:18Z
2021-04-17T00:37:12Z,42.805,6.029,13.2993,4.60000,2469.937,2021-4-17T02:38:21Z
2021-04-17T00:40:15Z,42.805,6.029,13.2993,4.60000,2469.937,2021-4-17T02:41:24Z
2021-04-17T00:43:19Z,42.805,6.029,13.2991,4.59999,2469.914,2021-4-17T02:44:27Z
2021-04-17T00:46:22Z,42.805,6.029,13.2990,4.60001,2469.923,2021-4-17T02:47:30Z
2021-04-17T00:49:25Z,42.805,6.029,13.2988,4.59999,2469.9,2021-4-17T02:50:34Z
2021-04-17T00:52:28Z,42.805,6.029,13.3000,4.60016,2469.9,2021-4-17T02:53:37Z
2021-04-17T00:55:31Z,42.805,6.029,13.2993,4.60006,2469.89,2021-4-17T02:56:40Z
2021-04-17T00:58:34Z,42.805,6.029,13.2985,4.59999,2469.923,2021-4-17T02:59:43Z
2021-04-17T01:01:37Z,42.805,6.029,13.2995,4.60011,2469.914,2021-4-17T03:02:46Z
2021-04-17T01:04:40Z,42.805,6.029,13.2993,4.60000,2469.9,2021-4-17T03:05:49Z
2021-04-17T01:07:44Z,42.805,6.029,13.2993,4.60014,2469.9,2021-4-17T03:08:52Z
2021-04-17T01:10:47Z,42.805,6.029,13.2996,4.60014,2469.9,2021-4-17T03:11:55Z
2021-04-17T01:13:50Z,42.805,6.029,13.2990,4.59999,2469.89,2021-4-17T03:14:59Z
2021-04-17T01:16:53Z,42.805,6.029,13.2991,4.60006,2469.89,2021-4-17T03:18:02Z
2021-04-17T01:19:56Z,42.805,6.029,13.2993,4.60001,2469.914,2021-4-17T03:21:05Z
2021-04-17T01:22:59Z,42.805,6.029,13.2992,4.60010,2469.853,2021-4-17T03:24:08Z
2021-04-17T01:26:02Z,42.805,6.029,13.2996,4.60019,2469.914,2021-4-17T03:27:11Z
2021-04-17T01:29:05Z,42.805,6.029,13.2990,4.59999,2469.89,2021-4-17T03:30:14Z
2021-04-17T01:32:08Z,42.805,6.029,13.2991,4.60006,2469.89,2021-4-17T03:33:17Z
2021-04-17T01:35:12Z,42.805,6.029,13.2993,4.60008,2469.89,2021-4-17T03:36:20Z
2021-04-17T01:38:15Z,42.805,6.029,13.2991,4.60003,2469.876,2021-4-17T03:39:23Z
2021-04-17T01:41:18Z,42.805,6.029,13.2993,4.60010,2469.876,2021-4-17T03:42:27Z
2021-04-17T01:44:21Z,42.805,6.029,13.2999,4.60016,2469.89,2021-4-17T03:45:30Z
2021-04-17T01:47:24Z,42.805,6.029,13.2990,4.60001,2469.876,2021-4-17T03:48:33Z
2021-04-17T01:50:27Z,42.805,6.029,13.2995,4.60003,2469.876,2021-4-17T03:51:36Z
2021-04-17T01:53:30Z,42.805,6.029,13.2993,4.60009,2469.89,2021-4-17T03:54:39Z
2021-04-17T01:56:34Z,42.805,6.029,13.2990,4.60003,2469.876,2021-4-17T03:57:42Z
2021-04-17T01:59:37Z,42.805,6.029,13.2990,4.60005,2469.876,2021-4-17T04:00:45Z
2021-04-17T02:02:40Z,42.805,6.029,13.2997,4.60011,2469.853,2021-4-17T04:03:48Z
2021-04-17T02:05:43Z,42.805,6.029,13.2997,4.60019,2469.9,2021-4-17T04:06:52Z
2021-04-17T02:08:46Z,42.805,6.029,13.2993,4.60007,2469.89,2021-4-17T04:09:55Z
2021-04-17T02:11:49Z,42.805,6.029,13.2993,4.60000,2469.853,2021-4-17T04:12:58Z
2021-04-17T02:14:52Z,42.805,6.029,13.3000,4.60009,2469.9,2021-4-17T04:16:01Z
2021-04-17T02:17:55Z,42.805,6.029,13.2991,4.60009,2469.89,2021-4-17T04:19:04Z
2021-04-17T02:20:58Z,42.805,6.029,13.2991,4.60015,2469.867,2021-4-17T04:22:07Z
2021-04-17T02:24:02Z,42.805,6.029,13.2998,4.60004,2469.876,2021-4-17T04:25:10Z
2021-04-17T02:27:05Z,42.805,6.029,13.2996,4.60002,2469.9,2021-4-17T04:28:13Z
2021-04-17T02:30:08Z,42.805,6.029,13.2995,4.60003,2469.914,2021-4-17T04:31:17Z
2021-04-17T02:33:11Z,42.805,6.029,13.2996,4.60006,2469.9,2021-4-17T04:34:20Z
2021-04-17T02:36:14Z,42.805,6.029,13.2997,4.60016,2469.876,2021-4-17T04:37:23Z
2021-04-17T02:39:17Z,42.805,6.029,13.3006,4.60017,2469.853,2021-4-17T04:40:26Z
2021-04-17T02:42:20Z,42.805,6.029,13.2993,4.60006,2469.867,2021-4-17T04:43:29Z
2021-04-17T02:45:23Z,42.805,6.029,13.2992,4.60003,2469.853,2021-4-17T04:46:32Z
2021-04-17T02:48:27Z,42.805,6.029,13.2991,4.60015,2469.89,2021-4-17T04:49:35Z
2021-04-17T02:51:30Z,42.805,6.029,13.2997,4.60011,2469.876,2021-4-17T04:52:38Z
2021-04-17T02:54:33Z,42.805,6.029,13.2993,4.60003,2469.867,2021-4-17T04:55:42Z
2021-04-17T02:57:36Z,42.805,6.029,13.2989,4.60003,2469.89,2021-4-17T04:58:45Z
2021-04-17T03:00:39Z,42.805,6.029,13.2995,4.60006,2469.876,2021-4-17T05:01:48Z
2021-04-17T03:03:42Z,42.805,6.029,13.2996,4.60015,2469.867,2021-4-17T05:04:51Z
2021-04-17T03:06:45Z,42.805,6.029,13.3002,4.60026,2469.853,2021-4-17T05:07:54Z
2021-04-17T03:09:48Z,42.805,6.029,13.2998,4.60006,2469.844,2021-4-17T05:10:57Z
2021-04-17T03:12:52Z,42.805,6.029,13.3003,4.60006,2469.853,2021-4-17T05:14:00Z
2021-04-17T03:15:55Z,42.805,6.029,13.2996,4.60010,2469.876,2021-4-17T05:17:03Z
2021-04-17T03:18:58Z,42.805,6.029,13.3002,4.60020,2469.83,2021-4-17T05:20:07Z
2021-04-17T03:22:01Z,42.805,6.029,13.3008,4.60021,2469.876,2021-4-17T05:23:10Z
2021-04-17T03:25:04Z,42.805,6.029,13.3000,4.60013,2469.867,2021-4-17T05:26:13Z
2021-04-17T03:28:07Z,42.805,6.029,13.2996,4.60009,2469.853,2021-4-17T05:29:16Z
2021-04-17T03:31:10Z,42.805,6.029,13.3000,4.60013,2469.876,2021-4-17T05:32:19Z
2021-04-17T03:34:13Z,42.805,6.029,13.3000,4.60014,2469.83,2021-4-17T05:35:22Z
2021-04-17T03:37:17Z,42.805,6.029,13.2999,4.60005,2469.844,2021-4-17T05:38:25Z
2021-04-17T03:40:20Z,42.805,6.029,13.2998,4.60019,2469.876,2021-4-17T05:41:28Z
2021-04-17T03:43:23Z,42.805,6.029,13.3000,4.60010,2469.853,2021-4-17T05:44:32Z
2021-04-17T03:46:26Z,42.805,6.029,13.3011,4.60021,2469.853,2021-4-17T05:47:35Z
2021-04-17T03:49:29Z,42.805,6.029,13.3004,4.60031,2469.867,2021-4-17T05:50:38Z
2021-04-17T03:52:32Z,42.805,6.029,13.2994,4.60021,2469.867,2021-4-17T05:53:41Z
2021-04-17T03:55:35Z,42.805,6.029,13.3004,4.60022,2469.853,2021-4-17T05:56:44Z
2021-04-17T03:58:38Z,42.805,6.029,13.3006,4.60036,2469.853,2021-4-17T05:59:47Z
2021-04-17T04:01:42Z,42.805,6.029,13.3006,4.60024,2469.867,2021-4-17T06:02:50Z
2021-04-17T04:04:45Z,42.805,6.029,13.2996,4.60013,2469.876,2021-4-17T06:05:53Z
2021-04-17T04:07:48Z,42.805,6.029,13.3000,4.60007,2469.867,2021-4-17T06:08:56Z
2021-04-17T04:10:51Z,42.805,6.029,13.3011,4.60016,2469.83,2021-4-17T06:12:00Z
2021-04-17T04:13:54Z,42.805,6.029,13.3002,4.60011,2469.89,2021-4-17T06:15:03Z
2021-04-17T04:16:57Z,42.805,6.029,13.3001,4.60025,2469.853,2021-4-17T06:18:06Z
2021-04-17T04:20:00Z,42.805,6.029,13.3006,4.60029,2469.853,2021-4-17T06:21:09Z
2021-04-17T04:23:03Z,42.805,6.029,13.3004,4.60016,2469.876,2021-4-17T06:24:12Z
2021-04-17T04:26:07Z,42.805,6.029,13.2997,4.60025,2469.853,2021-4-17T06:27:15Z
2021-04-17T04:29:10Z,42.805,6.029,13.3000,4.60031,2469.853,2021-4-17T06:30:18Z
2021-04-17T04:32:13Z,42.805,6.029,13.3007,4.60024,2469.876,2021-4-17T06:33:21Z
2021-04-17T04:35:16Z,42.805,6.029,13.3000,4.60011,2469.853,2021-4-17T06:36:25Z
2021-04-17T04:38:19Z,42.805,6.029,13.2994,4.60006,2469.853,2021-4-17T06:39:28Z
2021-04-17T04:41:22Z,42.805,6.029,13.3002,4.60014,2469.89,2021-4-17T06:42:31Z
2021-04-17T04:44:25Z,42.805,6.029,13.3016,4.60030,2469.867,2021-4-17T06:45:34Z
2021-04-17T04:47:28Z,42.805,6.029,13.3010,4.60014,2469.844,2021-4-17T06:48:37Z
2021-04-17T04:50:31Z,42.805,6.029,13.3007,4.60017,2469.89,2021-4-17T06:51:40Z
2021-04-17T04:53:35Z,42.805,6.029,13.3006,4.60043,2469.844,2021-4-17T06:54:43Z
2021-04-17T04:56:38Z,42.805,6.029,13.3000,4.60019,2469.876,2021-4-17T06:57:46Z
2021-04-17T04:59:41Z,42.805,6.029,13.2992,4.60006,2469.876,2021-4-17T07:00:50Z
2021-04-17T05:02:44Z,42.805,6.029,13.2994,4.60007,2469.853,2021-4-17T07:03:53Z
2021-04-17T05:05:47Z,42.805,6.029,13.3005,4.60036,2469.853,2021-4-17T07:06:56Z
2021-04-17T05:08:50Z,42.805,6.029,13.3009,4.60034,2469.876,2021-4-17T07:09:59Z
2021-04-17T05:11:53Z,42.805,6.029,13.3014,4.60033,2469.853,2021-4-17T07:13:02Z
2021-04-17T05:14:56Z,42.805,6.029,13.2998,4.60015,2469.853,2021-4-17T07:16:05Z
2021-04-17T05:18:00Z,42.805,6.029,13.3003,4.60025,2469.853,2021-4-17T07:19:08Z
2021-04-17T05:21:03Z,42.805,6.029,13.2994,4.60008,2469.9,2021-4-17T07:22:11Z
2021-04-17T05:24:06Z,42.805,6.029,13.2991,4.60004,2469.89,2021-4-17T07:25:15Z
2021-04-17T05:27:09Z,42.805,6.029,13.2996,4.60006,2469.914,2021-4-17T07:28:18Z
2021-04-17T05:30:12Z,42.805,6.029,13.2996,4.60006,2469.876,2021-4-17T07:31:21Z
2021-04-17T05:33:15Z,42.805,6.029,13.2991,4.60003,2469.89,2021-4-17T07:34:24Z
2021-04-17T05:36:18Z,42.805,6.029,13.2992,4.60009,2469.876,2021-4-17T07:37:27Z
2021-04-17T05:39:21Z,42.805,6.029,13.3000,4.60018,2469.89,2021-4-17T07:40:30Z
2021-04-17T05:42:25Z,42.805,6.029,13.3009,4.60024,2469.89,2021-4-17T07:43:33Z
2021-04-17T05:45:28Z,42.805,6.029,13.3004,4.60026,2469.867,2021-4-17T07:46:36Z
2021-04-17T05:48:31Z,42.805,6.029,13.3000,4.60031,2469.89,2021-4-17T07:49:40Z
2021-04-17T05:51:34Z,42.805,6.029,13.3011,4.60024,2469.89,2021-4-17T07:52:43Z
2021-04-17T05:54:37Z,42.805,6.029,13.3009,4.60024,2469.9,2021-4-17T07:55:46Z
2021-04-17T05:57:40Z,42.805,6.029,13.3014,4.60037,2469.89,2021-4-17T07:58:49Z
2021-04-17T06:00:43Z,42.805,6.029,13.2993,4.60009,2469.9,2021-4-17T08:01:52Z
2021-04-17T06:03:46Z,42.805,6.029,13.2996,4.60014,2469.876,2021-4-17T08:04:55Z
2021-04-17T06:06:50Z,42.805,6.029,13.2998,4.60014,2469.923,2021-4-17T08:07:58Z
2021-04-17T06:09:53Z,42.805,6.029,13.2994,4.60005,2469.9,2021-4-17T08:11:01Z
2021-04-17T06:12:56Z,42.805,6.029,13.2996,4.60026,2469.853,2021-4-17T08:14:05Z
2021-04-17T06:15:59Z,42.805,6.029,13.3004,4.60031,2469.923,2021-4-17T08:17:08Z
2021-04-17T06:19:02Z,42.805,6.029,13.2998,4.60021,2469.914,2021-4-17T08:20:11Z
2021-04-17T06:22:05Z,42.805,6.029,13.3008,4.60022,2469.876,2021-4-17T08:23:14Z
2021-04-17T06:25:08Z,42.805,6.029,13.3001,4.60027,2469.89,2021-4-17T08:26:17Z
2021-04-17T06:28:11Z,42.805,6.029,13.3011,4.60033,2469.914,2021-4-17T08:29:20Z
2021-04-17T06:31:15Z,42.805,6.029,13.2994,4.60017,2469.937,2021-4-17T08:32:23Z
2021-04-17T06:34:18Z,42.805,6.029,13.2993,4.60014,2469.876,2021-4-17T08:35:26Z
2021-04-17T06:37:21Z,42.805,6.029,13.3011,4.60032,2469.9,2021-4-17T08:38:29Z
2021-04-17T06:40:24Z,42.805,6.029,13.3005,4.60028,2469.89,2021-4-17T08:41:33Z
2021-04-17T06:43:27Z,42.805,6.029,13.3009,4.60010,2469.914,2021-4-17T08:44:36Z
2021-04-17T06:46:30Z,42.805,6.029,13.2998,4.60018,2469.89,2021-4-17T08:47:39Z
2021-04-17T06:49:33Z,42.805,6.029,13.3003,4.60027,2469.937,2021-4-17T08:50:42Z
2021-04-17T06:52:36Z,42.805,6.029,13.3006,4.60026,2469.9,2021-4-17T08:53:45Z
2021-04-17T06:55:40Z,42.805,6.029,13.3003,4.60016,2469.914,2021-4-17T08:56:48Z
2021-04-17T06:58:43Z,42.805,6.029,13.3000,4.60025,2469.923,2021-4-17T08:59:51Z
2021-04-17T07:01:46Z,42.805,6.029,13.3000,4.60022,2469.947,2021-4-17T09:02:55Z
2021-04-17T07:04:49Z,42.805,6.029,13.3003,4.60028,2469.97,2021-4-17T09:05:58Z
2021-04-17T07:07:52Z,42.805,6.029,13.3007,4.60023,2469.937,2021-4-17T09:09:01Z
2021-04-17T07:10:55Z,42.805,6.029,13.3002,4.60025,2469.947,2021-4-17T09:12:04Z
2021-04-17T07:13:58Z,42.805,6.029,13.3014,4.60026,2469.937,2021-4-17T09:15:07Z
2021-04-17T07:17:01Z,42.805,6.029,13.3014,4.60023,2469.947,2021-4-17T09:18:10Z
2021-04-17T07:20:04Z,42.805,6.029,13.2994,4.60009,2469.97,2021-4-17T09:21:13Z
2021-04-17T07:23:08Z,42.805,6.029,13.2993,4.60006,2469.96,2021-4-17T09:24:16Z
2021-04-17T07:26:11Z,42.805,6.029,13.2999,4.60028,2469.96,2021-4-17T09:27:19Z
2021-04-17T07:29:14Z,42.805,6.029,13.2992,4.60026,2469.909,2021-4-17T09:30:23Z
2021-04-17T07:32:17Z,42.805,6.029,13.2999,4.60022,2469.97,2021-4-17T09:33:26Z
2021-04-17T07:35:20Z,42.805,6.029,13.2997,4.60022,2469.937,2021-4-17T09:36:29Z
2021-04-17T07:38:23Z,42.805,6.029,13.3000,4.60028,2469.96,2021-4-17T09:39:32Z
2021-04-17T07:41:26Z,42.805,6.029,13.3009,4.60032,2469.984,2021-4-17T09:42:35Z
2021-04-17T07:44:29Z,42.805,6.029,13.2996,4.60007,2469.96,2021-4-17T09:45:38Z
2021-04-17T07:47:33Z,42.805,6.029,13.2991,4.60016,2469.947,2021-4-17T09:48:41Z
2021-04-17T07:50:36Z,42.805,6.029,13.2998,4.60036,2469.937,2021-4-17T09:51:44Z
2021-04-17T07:53:39Z,42.805,6.029,13.3000,4.60037,2469.947,2021-4-17T09:54:48Z
2021-04-17T07:56:42Z,42.805,6.029,13.3001,4.60026,2469.923,2021-4-17T09:57:51Z
2021-04-17T07:59:45Z,42.805,6.029,13.3000,4.60036,2469.984,2021-4-17T10:00:54Z
2021-04-17T08:02:48Z,42.805,6.029,13.3006,4.60022,2469.947,2021-4-17T10:03:57Z
2021-04-17T08:05:51Z,42.805,6.029,13.3006,4.60029,2469.984,2021-4-17T10:07:00Z
2021-04-17T08:08:54Z,42.805,6.029,13.3009,4.60021,2470.007,2021-4-17T10:10:03Z
2021-04-17T08:11:58Z,42.805,6.029,13.3002,4.60026,2470.03,2021-4-17T10:13:06Z
2021-04-17T08:15:01Z,42.805,6.029,13.2997,4.60031,2469.97,2021-4-17T10:16:09Z
2021-04-17T08:18:04Z,42.805,6.029,13.3006,4.60038,2469.993,2021-4-17T10:19:13Z
2021-04-17T08:21:07Z,42.805,6.029,13.2999,4.60017,2470.007,2021-4-17T10:22:16Z
2021-04-17T08:24:10Z,42.805,6.029,13.3004,4.60014,2469.993,2021-4-17T10:25:19Z
2021-04-17T08:27:13Z,42.805,6.029,13.2993,4.60029,2470.007,2021-4-17T10:28:22Z
2021-04-17T08:30:16Z,42.805,6.029,13.3003,4.60031,2469.993,2021-4-17T10:31:25Z
2021-04-17T08:33:19Z,42.805,6.029,13.3005,4.60029,2470.017,2021-4-17T10:34:28Z
2021-04-17T08:36:23Z,42.805,6.029,13.2997,4.60023,2469.993,2021-4-17T10:37:31Z
2021-04-17T08:39:26Z,42.805,6.029,13.3006,4.60031,2469.993,2021-4-17T10:40:34Z
2021-04-17T08:42:29Z,42.805,6.029,13.3009,4.60029,2470.03,2021-4-17T10:43:38Z
2021-04-17T08:45:32Z,42.805,6.029,13.3005,4.60035,2469.993,2021-4-17T10:46:41Z
2021-04-17T08:48:35Z,42.805,6.029,13.2992,4.60023,2470.007,2021-4-17T10:49:44Z
2021-04-17T08:51:38Z,42.805,6.029,13.3014,4.60013,2470.03,2021-4-17T10:52:47Z
2021-04-17T08:54:41Z,42.805,6.029,13.3011,4.60019,2470.017,2021-4-17T10:55:50Z
2021-04-17T08:57:45Z,42.805,6.029,13.3005,4.60017,2470.017,2021-4-17T10:58:53Z
2021-04-17T09:00:48Z,42.805,6.029,13.3006,4.60014,2470.007,2021-4-17T11:01:56Z
2021-04-17T09:03:51Z,42.805,6.029,13.2997,4.60009,2470.017,2021-4-17T11:05:00Z
2021-04-17T09:06:54Z,42.805,6.029,13.3002,4.60042,2469.993,2021-4-17T11:08:03Z
2021-04-17T09:09:57Z,42.805,6.029,13.2998,4.60028,2470.007,2021-4-17T11:11:06Z
2021-04-17T09:13:00Z,42.805,6.029,13.3002,4.60029,2470.017,2021-4-17T11:14:09Z
2021-04-17T09:16:03Z,42.805,6.029,13.3001,4.60015,2469.993,2021-4-17T11:17:12Z
2021-04-17T09:19:06Z,42.805,6.029,13.2991,4.60023,2470.053,2021-4-17T11:20:15Z
2021-04-17T09:22:10Z,42.805,6.029,13.3009,4.60035,2469.993,2021-4-17T11:23:18Z
2021-04-17T09:25:13Z,42.805,6.029,13.3006,4.60023,2470.04,2021-4-17T11:26:21Z
2021-04-17T09:28:16Z,42.805,6.029,13.3005,4.60019,2470.017,2021-4-17T11:29:25Z
2021-04-17T09:31:19Z,42.805,6.029,13.2996,4.60031,2470.053,2021-4-17T11:32:28Z
2021-04-17T09:34:22Z,42.805,6.029,13.3004,4.60037,2470.007,2021-4-17T11:35:31Z
2021-04-17T09:37:25Z,42.805,6.029,13.3001,4.60024,2470.053,2021-4-17T11:38:34Z
2021-04-17T09:40:28Z,42.805,6.029,13.2989,4.60019,2469.993,2021-4-17T11:41:37Z
2021-04-17T09:43:31Z,42.805,6.029,13.3008,4.60022,2470.04,2021-4-17T11:44:40Z
2021-04-17T09:46:35Z,42.805,6.029,13.2998,4.60006,2470.03,2021-4-17T11:47:43Z
2021-04-17T09:49:38Z,42.805,6.029,13.2998,4.59994,2470.063,2021-4-17T11:50:46Z
2021-04-17T09:52:41Z,42.805,6.029,13.2996,4.60011,2470.017,2021-4-17T11:53:50Z
2021-04-17T09:55:44Z,42.805,6.029,13.3008,4.60021,2470.017,2021-4-17T11:56:53Z
2021-04-17T09:58:47Z,42.805,6.029,13.3019,4.60029,2469.993,2021-4-17T11:59:56Z
2021-04-17T10:01:50Z,42.805,6.029,13.3002,4.59998,2470.04,2021-4-17T12:02:59Z
2021-04-17T10:04:53Z,42.805,6.029,13.2991,4.59998,2469.993,2021-4-17T12:06:02Z
2021-04-17T10:07:56Z,42.805,6.029,13.3000,4.60022,2470.063,2021-4-17T12:09:05Z
2021-04-17T10:11:00Z,42.805,6.029,13.2991,4.60006,2470.03,2021-4-17T12:12:08Z
2021-04-17T10:14:03Z,42.805,6.029,13.3000,4.60004,2470.03,2021-4-17T12:15:11Z
2021-04-17T10:17:06Z,42.805,6.029,13.2988,4.60011,2470.03,2021-4-17T12:18:15Z
2021-04-17T10:20:10Z,42.805,6.029,13.2996,4.60017,2470.053,2021-4-17T12:21:18Z
2021-04-17T10:23:13Z,42.805,6.029,13.3003,4.60042,2470.017,2021-4-17T12:24:22Z
2021-04-17T10:26:16Z,42.805,6.029,13.3012,4.60019,2470.03,2021-4-17T12:27:25Z
2021-04-17T10:29:19Z,42.805,6.029,13.3000,4.60033,2470.053,2021-4-17T12:30:28Z
2021-04-17T10:32:22Z,42.805,6.029,13.3005,4.60025,2470.03,2021-4-17T12:33:31Z
2021-04-17T10:35:25Z,42.805,6.029,13.3005,4.60031,2470.04,2021-4-17T12:36:34Z
2021-04-17T10:38:28Z,42.805,6.029,13.3000,4.60034,2470.04,2021-4-17T12:39:37Z
2021-04-17T10:41:32Z,42.805,6.029,13.2998,4.60005,2470.03,2021-4-17T12:42:40Z
2021-04-17T10:44:35Z,42.805,6.029,13.2999,4.60020,2470.03,2021-4-17T12:45:43Z
2021-04-17T10:47:38Z,42.805,6.029,13.2987,4.60003,2469.993,2021-4-17T12:48:47Z
2021-04-17T10:50:41Z,42.805,6.029,13.2990,4.60003,2470.007,2021-4-17T12:51:50Z
2021-04-17T10:53:44Z,42.805,6.029,13.2998,4.60024,2470.017,2021-4-17T12:54:53Z
2021-04-17T10:56:47Z,42.805,6.029,13.3003,4.60030,2470.017,2021-4-17T12:57:56Z
2021-04-17T10:59:50Z,42.805,6.029,13.3003,4.60022,2470.03,2021-4-17T13:00:59Z
2021-04-17T11:02:53Z,42.805,6.029,13.2993,4.60025,2470.03,2021-4-17T13:04:02Z
2021-04-17T11:05:57Z,42.805,6.029,13.2998,4.59995,2470.03,2021-4-17T13:07:05Z
2021-04-17T11:09:00Z,42.805,6.029,13.2993,4.60014,2469.993,2021-4-17T13:10:08Z
2021-04-17T11:12:03Z,42.805,6.029,13.3000,4.60037,2470.04,2021-4-17T13:13:12Z
2021-04-17T11:15:06Z,42.805,6.029,13.3004,4.60039,2469.993,2021-4-17T13:16:15Z
2021-04-17T11:18:09Z,42.805,6.029,13.3004,4.60029,2470.03,2021-4-17T13:19:18Z
2021-04-17T11:21:12Z,42.805,6.029,13.2993,4.60020,2470.04,2021-4-17T13:22:21Z
2021-04-17T11:24:15Z,42.805,6.029,13.2999,4.60038,2470.017,2021-4-17T13:25:24Z
2021-04-17T11:27:18Z,42.805,6.029,13.2999,4.60049,2470.04,2021-4-17T13:28:27Z
2021-04-17T11:30:22Z,42.805,6.029,13.3000,4.60041,2470.017,2021-4-17T13:31:30Z
2021-04-17T11:33:25Z,42.805,6.029,13.2995,4.60023,2470.017,2021-4-17T13:34:33Z
2021-04-17T11:36:28Z,42.805,6.029,13.3009,4.60023,2469.993,2021-4-17T13:37:37Z
2021-04-17T11:39:31Z,42.805,6.029,13.3014,4.60016,2470.03,2021-4-17T13:40:40Z
2021-04-17T11:42:34Z,42.805,6.029,13.3004,4.60023,2469.993,2021-4-17T13:43:43Z
2021-04-17T11:45:37Z,42.805,6.029,13.2991,4.60009,2470.017,2021-4-17T13:46:46Z
2021-04-17T11:48:40Z,42.805,6.029,13.3011,4.60020,2470.017,2021-4-17T13:49:49Z
2021-04-17T11:51:43Z,42.805,6.029,13.3006,4.60004,2470.017,2021-4-17T13:52:52Z
2021-04-17T11:54:47Z,42.805,6.029,13.2998,4.60031,2470.017,2021-4-17T13:55:55Z
2021-04-17T11:57:50Z,42.805,6.029,13.3018,4.60025,2470.04,2021-4-17T13:58:58Z
2021-04-17T12:00:53Z,42.805,6.029,13.2998,4.60025,2470.007,2021-4-17T14:02:02Z
2021-04-17T12:03:56Z,42.805,6.029,13.2986,4.60002,2470.017,2021-4-17T14:05:05Z
2021-04-17T12:06:59Z,42.805,6.029,13.3009,4.60033,2469.993,2021-4-17T14:08:08Z
2021-04-17T12:10:02Z,42.805,6.029,13.3011,4.60033,2470.017,2021-4-17T14:11:11Z
2021-04-17T12:13:05Z,42.805,6.029,13.3011,4.60021,2470.03,2021-4-17T14:14:14Z
2021-04-17T12:16:08Z,42.805,6.029,13.3007,4.60044,2470.017,2021-4-17T14:17:17Z
2021-04-17T12:19:12Z,42.805,6.029,13.3004,4.60057,2470.017,2021-4-17T14:20:20Z
2021-04-17T12:22:15Z,42.805,6.029,13.2998,4.60041,2470.007,2021-4-17T14:23:24Z
2021-04-17T12:25:18Z,42.805,6.029,13.3000,4.60038,2470.017,2021-4-17T14:26:27Z
2021-04-17T12:28:21Z,42.805,6.029,13.3002,4.60043,2469.993,2021-4-17T14:29:30Z
2021-04-17T12:31:24Z,42.805,6.029,13.3000,4.60037,2470.03,2021-4-17T14:32:33Z
2021-04-17T12:34:27Z,42.805,6.029,13.3017,4.60038,2470.03,2021-4-17T14:35:36Z
2021-04-17T12:37:30Z,42.805,6.029,13.3021,4.60029,2470.03,2021-4-17T14:38:39Z
2021-04-17T12:40:34Z,42.805,6.029,13.3000,4.60047,2470.04,2021-4-17T14:41:42Z
2021-04-17T12:43:37Z,42.805,6.029,13.2998,4.60035,2470.03,2021-4-17T14:44:45Z
2021-04-17T12:46:40Z,42.805,6.029,13.3015,4.60042,2470.03,2021-4-17T14:47:49Z
2021-04-17T12:49:43Z,42.805,6.029,13.3018,4.60020,2470.007,2021-4-17T14:50:52Z
2021-04-17T12:52:46Z,42.805,6.029,13.3008,4.60046,2470.007,2021-4-17T14:53:55Z
2021-04-17T12:55:49Z,42.805,6.029,13.3015,4.60032,2470.007,2021-4-17T14:56:58Z
2021-04-17T12:58:52Z,42.805,6.029,13.2990,4.60021,2470.03,2021-4-17T15:00:01Z
2021-04-17T13:01:55Z,42.805,6.029,13.2998,4.60029,2470.007,2021-4-17T15:03:04Z
2021-04-17T13:04:59Z,42.805,6.029,13.2998,4.60022,2470.007,2021-4-17T15:06:07Z
2021-04-17T13:08:02Z,42.805,6.029,13.3004,4.60021,2470.007,2021-4-17T15:09:10Z
2021-04-17T13:11:05Z,42.805,6.029,13.3004,4.60025,2470.03,2021-4-17T15:12:14Z
2021-04-17T13:14:08Z,42.805,6.029,13.2997,4.60039,2470.007,2021-4-17T15:15:17Z
2021-04-17T13:17:11Z,42.805,6.029,13.2996,4.60029,2470.007,2021-4-17T15:18:20Z
2021-04-17T13:20:14Z,42.805,6.029,13.2994,4.60032,2470.007,2021-4-17T15:21:23Z
2021-04-17T13:23:17Z,42.805,6.029,13.2998,4.60050,2470.03,2021-4-17T15:24:26Z
2021-04-17T13:26:20Z,42.805,6.029,13.2991,4.60026,2470.017,2021-4-17T15:27:29Z
2021-04-17T13:29:24Z,42.805,6.029,13.3014,4.60029,2469.993,2021-4-17T15:30:32Z
2021-04-17T13:32:27Z,42.805,6.029,13.3004,4.60034,2470.017,2021-4-17T15:33:35Z
2021-04-17T13:35:30Z,42.805,6.029,13.2999,4.60035,2469.984,2021-4-17T15:36:39Z
2021-04-17T13:38:33Z,42.805,6.029,13.2998,4.60037,2469.993,2021-4-17T15:39:42Z
2021-04-17T13:41:36Z,42.805,6.029,13.2999,4.60044,2469.984,2021-4-17T15:42:45Z
2021-04-17T13:44:39Z,42.805,6.029,13.3008,4.60031,2470.007,2021-4-17T15:45:48Z
2021-04-17T13:47:42Z,42.805,6.029,13.3009,4.60039,2469.97,2021-4-17T15:48:51Z
2021-04-17T13:50:45Z,42.805,6.029,13.3003,4.60033,2469.993,2021-4-17T15:51:54Z
2021-04-17T13:53:49Z,42.805,6.029,13.3000,4.60034,2470.007,2021-4-17T15:54:57Z
2021-04-17T13:56:52Z,42.805,6.029,13.3007,4.60036,2470.007,2021-4-17T15:58:01Z
2021-04-17T13:59:55Z,42.805,6.029,13.2985,4.60014,2469.984,2021-4-17T16:01:04Z
2021-04-17T14:02:58Z,42.805,6.029,13.3002,4.60036,2469.993,2021-4-17T16:04:07Z
2021-04-17T14:06:01Z,42.805,6.029,13.3019,4.60029,2469.993,2021-4-17T16:07:10Z
2021-04-17T14:09:04Z,42.805,6.029,13.2997,4.60029,2469.993,2021-4-17T16:10:13Z
2021-04-17T14:12:07Z,42.805,6.029,13.2998,4.60033,2469.993,2021-4-17T16:13:16Z
2021-04-17T14:15:10Z,42.805,6.029,13.3006,4.60043,2469.993,2021-4-17T16:16:19Z
2021-04-17T14:18:14Z,42.805,6.029,13.2996,4.60039,2469.993,2021-4-17T16:19:22Z
2021-04-17T14:21:17Z,42.805,6.029,13.3011,4.60036,2469.984,2021-4-17T16:22:25Z
2021-04-17T14:24:20Z,42.805,6.029,13.2998,4.60035,2470.007,2021-4-17T16:25:29Z
2021-04-17T14:27:23Z,42.805,6.029,13.3009,4.60039,2469.993,2021-4-17T16:28:32Z
2021-04-17T14:30:26Z,42.805,6.029,13.3004,4.60046,2470.007,2021-4-17T16:31:35Z
2021-04-17T14:33:29Z,42.805,6.029,13.3003,4.60039,2469.993,2021-4-17T16:34:38Z
2021-04-17T14:36:32Z,42.805,6.029,13.3009,4.60050,2470.03,2021-4-17T16:37:41Z
2021-04-17T14:39:36Z,42.805,6.029,13.2993,4.60044,2469.984,2021-4-17T16:40:44Z
2021-04-17T14:42:39Z,42.805,6.029,13.3004,4.60041,2469.97,2021-4-17T16:43:47Z
2021-04-17T14:45:42Z,42.805,6.029,13.2991,4.60041,2469.993,2021-4-17T16:46:51Z
2021-04-17T14:48:45Z,42.805,6.029,13.3003,4.60033,2470.007,2021-4-17T16:49:54Z
2021-04-17T14:51:48Z,42.805,6.029,13.2991,4.60035,2470.007,2021-4-17T16:52:57Z
2021-04-17T14:54:51Z,42.805,6.029,13.3000,4.60039,2470.017,2021-4-17T16:56:00Z
2021-04-17T14:57:54Z,42.805,6.029,13.3002,4.60035,2470.017,2021-4-17T16:59:03Z
2021-04-17T15:00:57Z,42.805,6.029,13.3004,4.60029,2470.007,2021-4-17T17:02:06Z
2021-04-17T15:04:01Z,42.805,6.029,13.3006,4.60033,2470.007,2021-4-17T17:05:09Z
2021-04-17T15:07:04Z,42.805,6.029,13.3006,4.60019,2469.97,2021-4-17T17:08:12Z
2021-04-17T15:10:07Z,42.805,6.029,13.3002,4.60026,2470.017,2021-4-17T17:11:16Z
2021-04-17T15:13:10Z,42.805,6.029,13.3013,4.60021,2469.993,2021-4-17T17:14:19Z